DW7394 Weather Reports


Display with metric or nautical units.
time (UTC)temp
F
wind
direction
speed
MPH
gust
MPH
rain 1hr
in
rain 24hr
in
rain mn
in
humidity
%
barometer
mb
20260904154553 71 23 3.0 7.0 0.00 1.43 0.22 93 1016.0
20260904154050 71 324 3.0 6.0 0.00 1.43 0.22 93 1015.8
20260904153549 71 329 2.0 6.0 0.01 1.43 0.22 94 1015.6
20260904153056 71 338 4.0 6.0 0.02 1.43 0.22 94 1015.3
20260904152546 71 316 1.0 3.0 0.02 1.43 0.22 93 1015.1
20260904152046 71 331 1.0 4.0 0.03 1.43 0.22 93 1014.8
20260904151548 71 41 1.0 9.0 0.03 1.43 0.22 93 1014.6
20260904151044 71 205 1.0 10.0 0.04 1.43 0.22 93 1014.6
20260904150543 70 116 4.0 10.0 0.06 1.43 0.22 94 1014.0
20260904150042 70 142 4.0 7.0 0.07 1.43 0.22 94 1014.5
20260904145541 69 84 2.0 4.0 0.07 1.43 0.22 93 1014.9
20260904145040 69 69 2.0 4.0 0.08 1.43 0.22 93 1015.1
20260904144538 69 41 1.0 4.0 0.08 1.43 0.22 93 1015.2
20260904144038 69 41 0.0 4.0 0.08 1.43 0.22 93 1015.2
20260904143537 69 290 1.0 4.0 0.07 1.42 0.21 93 1015.2
20260904143037 69 137 0.0 4.0 0.07 1.41 0.20 93 1015.1
20260904142538 69 15 1.0 5.0 0.08 1.41 0.20 93 1015.2
20260904142039 69 84 2.0 6.0 0.10 1.40 0.19 93 1015.2
20260904141535 69 218 2.0 7.0 0.17 1.40 0.19 93 1015.3
20260904141034 69 257 4.0 7.0 0.18 1.39 0.18 93 1015.3
20260904140536 69 245 2.0 5.0 0.16 1.37 0.16 93 1015.2
20260904140037 69 236 2.0 6.0 0.15 1.36 0.15 93 1015.1
20260904135535 69 227 2.0 8.0 0.15 1.36 0.15 93 1015.2
20260904135034 69 236 4.0 9.0 0.14 1.35 0.14 93 1015.4
20260904134542 69 228 5.0 10.0 0.14 1.35 0.14 93 1015.4
20260904134033 69 229 6.0 10.0 0.14 1.35 0.14 93 1015.4
20260904133531 69 208 5.0 11.0 0.14 1.35 0.14 93 1015.2
20260904133044 69 198 6.0 11.0 0.13 1.34 0.13 93 1015.4
20260904132529 69 242 5.0 12.0 0.12 1.33 0.12 93 1015.4
20260904132029 69 243 4.0 12.0 0.09 1.30 0.09 93 1015.6
20260904131527 69 309 4.0 12.0 0.01 1.22 0.01 93 1015.4
20260904131026 69 233 4.0 10.0 0.00 1.21 0.00 93 1014.8
20260904130527 69 240 3.0 10.0 0.00 1.21 0.00 93 1014.6
20260904130026 69 236 3.0 12.0 0.00 1.21 0.00 93 1014.6
20260904125525 69 213 6.0 12.0 0.00 1.21 0.00 93 1014.7
20260904125053 69 223 5.0 10.0 0.00 1.21 0.00 93 1014.8
20260904124556 69 208 5.0 10.0 0.00 1.21 0.00 93 1014.8
20260904124051 69 238 5.0 10.0 0.00 1.21 0.00 93 1014.8
20260904123551 69 181 3.0 6.0 0.00 1.21 0.00 93 1014.5
20260904123051 68 210 2.0 5.0 0.00 1.21 0.00 93 1014.5
20260904122549 68 188 2.0 5.0 0.00 1.21 0.00 93 1014.5
20260904122049 68 130 1.0 6.0 0.00 1.21 0.00 93 1014.5
20260904121547 68 103 2.0 6.0 0.00 1.21 0.00 93 1014.3
20260904121048 68 142 2.0 5.0 0.00 1.21 0.00 93 1014.4
20260904120549 68 130 1.0 4.0 0.00 1.21 0.00 93 1014.5
20260904120057 67 130 1.0 4.0 0.00 1.21 0.00 93 1014.4
20260904115546 67 130 1.0 3.0 0.00 1.21 0.00 93 1014.3
20260904115045 67 112 1.0 4.0 0.00 1.21 0.00 93 1014.5
20260904114551 67 309 2.0 4.0 0.00 1.21 0.00 93 1014.4
20260904114044 66 112 2.0 4.0 0.00 1.21 0.00 93 1014.3
20260904113544 66 100 1.0 2.0 0.00 1.21 0.00 93 1014.5
20260904113043 66 173 0.0 3.0 0.00 1.21 0.00 93 1014.6
20260904112542 66 84 1.0 3.0 0.00 1.21 0.00 93 1014.6
20260904112040 66 84 0.0 3.0 0.00 1.21 0.00 93 1014.4
20260904111540 66 130 1.0 3.0 0.00 1.21 0.00 93 1014.3
20260904111040 66 100 1.0 3.0 0.00 1.21 0.00 93 1014.3
20260904110539 66 192 1.0 3.0 0.00 1.21 0.00 93 1014.5
20260904110038 66 356 1.0 4.0 0.00 1.34 0.00 93 1014.3
20260904105540 66 15 1.0 5.0 0.00 1.34 0.00 93 1014.0
20260904105037 66 218 2.0 6.0 0.00 1.34 0.00 93 1013.9
20260904104601 66 132 2.0 5.0 0.00 1.34 0.00 93 1013.8
20260904104035 66 154 2.0 5.0 0.00 1.34 0.00 93 1014.0
20260904103535 66 173 2.0 5.0 0.00 1.34 0.00 93 1013.9
20260904103037 66 139 2.0 5.0 0.00 1.34 0.00 93 1014.0
20260904102537 66 147 1.0 4.0 0.00 1.34 0.00 93 1014.2
20260904102037 66 84 2.0 4.0 0.00 1.34 0.00 93 1014.0
20260904101540 66 84 2.0 5.0 0.00 1.34 0.00 93 1014.0
20260904101035 66 74 2.0 5.0 0.00 1.34 0.00 92 1013.9
20260904100535 66 130 2.0 6.0 0.00 1.34 0.00 92 1013.7
20260904100037 66 84 3.0 6.0 0.00 1.34 0.00 92 1013.6
20260904095535 66 130 2.0 4.0 0.00 1.34 0.00 93 1013.7
20260904095034 65 84 0.0 3.0 0.00 1.34 0.00 93 1013.9
20260904094548 65 119 0.0 3.0 0.00 1.34 0.00 92 1014.1
20260904094032 65 183 2.0 3.0 0.00 1.34 0.00 92 1014.2
20260904093533 65 147 0.0 2.0 0.00 1.34 0.00 92 1014.4
20260904093032 65 23 0.0 2.0 0.00 1.34 0.00 92 1014.4
20260904092531 66 356 0.0 2.0 0.00 1.34 0.00 92 1014.2
20260904092034 66 264 0.0 3.0 0.00 1.34 0.00 92 1014.2
20260904091531 66 356 0.0 3.0 0.00 1.34 0.00 92 1014.1
20260904091032 66 51 1.0 3.0 0.00 1.34 0.00 92 1014.0
20260904090533 66 76 1.0 3.0 0.00 1.34 0.00 92 1013.9
20260904090030 66 30 1.0 3.0 0.00 1.34 0.00 92 1013.9
20260904085530 66 10 1.0 3.0 0.00 1.34 0.00 92 1013.9
20260904085030 66 112 0.0 2.0 0.00 1.34 0.00 92 1013.9
20260904084529 66 15 0.0 2.0 0.00 1.34 0.00 92 1013.9
20260904084028 66 41 0.0 3.0 0.00 1.34 0.00 92 1013.8
20260904083531 66 188 1.0 3.0 0.00 1.34 0.00 92 1013.6
20260904083027 66 188 1.0 2.0 0.00 1.34 0.00 92 1013.7
20260904082529 66 356 1.0 2.0 0.00 1.34 0.00 92 1013.8
20260904082026 66 356 0.0 3.0 0.00 1.34 0.00 92 1013.8
20260904081525 66 84 0.0 3.0 0.00 1.34 0.00 92 1013.7
20260904081026 66 102 1.0 3.0 0.00 1.34 0.00 92 1013.6
20260904080525 66 147 1.0 3.0 0.00 1.34 0.00 92 1013.6
20260904080026 66 41 1.0 3.0 0.00 1.34 0.00 92 1013.8
20260904075525 66 35 1.0 2.0 0.00 1.34 0.00 92 1013.9
20260904075025 66 41 0.0 3.0 0.00 1.34 0.00 92 1014.0
20260904074523 67 30 2.0 3.0 0.00 1.34 0.00 92 1014.0
20260904074027 66 30 1.0 3.0 0.00 1.34 0.00 92 1014.0
20260904073522 67 27 1.0 3.0 0.00 1.34 0.00 92 1014.0
20260904073029 67 10 1.0 2.0 0.00 1.34 0.00 92 1014.2
20260904072522 67 356 0.0 2.0 0.00 1.34 0.00 92 1014.1
20260904072021 67 356 1.0 3.0 0.00 1.34 0.00 92 1014.1
20260904071522 67 147 0.0 3.0 0.00 1.34 0.00 92 1014.0
20260904071021 67 23 0.0 3.0 0.00 1.34 0.00 92 1014.0
20260904070521 67 23 1.0 3.0 0.00 1.34 0.00 92 1014.0
20260904070037 67 196 0.0 3.0 0.00 1.34 0.00 92 1014.0
20260904065531 67 130 0.0 3.0 0.00 1.34 0.00 92 1013.9
20260904065020 67 140 1.0 3.0 0.00 1.34 0.00 92 1013.9
20260904064521 67 147 1.0 3.0 0.00 1.34 0.00 92 1014.0
20260904064025 67 130 0.0 3.0 0.00 1.34 0.00 92 1014.0
20260904063519 67 218 1.0 4.0 0.00 1.34 0.00 92 1014.0
20260904063019 67 173 0.0 5.0 0.00 1.34 0.00 92 1014.1
20260904062517 67 63 3.0 5.0 0.00 1.34 0.00 92 1014.1
20260904062017 67 67 1.0 3.0 0.00 1.34 0.00 92 1014.1
20260904061526 67 173 1.0 4.0 0.00 1.34 0.00 92 1014.1
20260904061017 67 67 1.0 4.0 0.00 1.34 0.00 92 1014.1
20260904060520 67 23 1.0 3.0 0.00 1.34 0.00 92 1014.0
20260904060017 67 218 0.0 4.0 0.00 1.34 0.00 92 1014.1
20260904055516 67 69 2.0 5.0 0.00 1.34 0.00 92 1014.0
20260904055015 67 281 1.0 5.0 0.00 1.34 0.00 92 1014.0
20260904054519 67 204 1.0 3.0 0.00 1.34 0.00 92 1014.0
20260904054016 67 41 1.0 3.0 0.00 1.34 0.00 92 1014.0
20260904053518 67 211 2.0 4.0 0.00 1.34 0.00 92 1013.9
20260904053020 67 48 2.0 6.0 0.00 1.34 0.00 92 1014.1
20260904052514 67 356 1.0 6.0 0.00 1.34 0.00 92 1013.9
20260904052013 67 206 1.0 4.0 0.00 1.34 0.00 92 1014.0
20260904051514 67 41 1.0 3.0 0.00 1.34 0.00 92 1013.9
20260904051015 68 84 0.0 4.0 0.00 1.34 0.00 92 1013.9
20260904050512 68 356 1.0 4.0 0.00 1.34 0.00 92 1013.9
20260904050025 68 229 2.0 4.0 0.00 1.34 0.00 92 1013.9
20260904045512 68 6 2.0 4.0 0.00 1.34 0.00 92 1014.1
20260904045013 68 218 1.0 6.0 0.00 1.34 0.00 92 1013.9
20260904044518 68 330 3.0 7.0 0.00 1.34 0.00 92 1014.0
20260904044012 68 16 4.0 7.0 0.00 1.34 0.00 91 1014.0
20260904043511 68 231 2.0 7.0 0.00 1.34 0.00 91 1013.9
20260904043010 68 23 4.0 7.0 0.00 1.34 0.00 91 1014.0
20260904042510 68 23 0.0 5.0 0.00 1.34 0.00 91 1013.9
20260904042011 68 35 4.0 7.0 0.00 1.34 0.00 91 1013.9
20260904041510 68 208 3.0 7.0 0.00 1.34 0.00 91 1013.6
20260904041008 68 234 1.0 7.0 0.00 1.34 0.00 92 1013.9
20260904040508 68 25 5.0 8.0 0.00 1.34 0.00 92 1013.7
20260904040007 68 234 4.0 9.0 0.00 1.34 1.34 91 1013.4
20260904035507 68 218 2.0 9.0 0.00 1.34 1.34 92 1013.7
20260904035008 68 6 2.0 11.0 0.00 1.34 1.34 91 1013.7
20260904034506 68 23 7.0 11.0 0.00 1.34 1.34 92 1013.6
20260904034005 68 356 1.0 8.0 0.00 1.34 1.34 91 1013.1
20260904033505 68 156 3.0 8.0 0.00 1.34 1.34 91 1013.2
20260904033004 68 156 4.0 14.0 0.00 1.34 1.34 91 1013.1
20260904032504 68 154 4.0 14.0 0.00 1.34 1.34 91 1013.2
20260904032005 68 193 5.0 11.0 0.00 1.34 1.34 91 1012.9
20260904031504 68 138 6.0 11.0 0.00 1.34 1.34 91 1012.9
20260904031006 68 181 5.0 11.0 0.00 1.34 1.34 91 1012.9
20260904030507 68 132 3.0 11.0 0.00 1.34 1.34 91 1012.9
20260904030004 68 147 3.0 13.0 0.00 1.34 1.34 91 1012.9
20260904025604 68 210 5.0 13.0 0.00 1.34 1.34 91 1012.9
20260904025003 68 156 3.0 13.0 0.00 1.34 1.34 91 1012.9
20260904024503 68 192 6.0 14.0 0.00 1.34 1.34 91 1013.0
20260904024002 68 176 5.0 15.0 0.00 1.34 1.34 91 1012.9
20260904023505 68 189 6.0 15.0 0.00 1.34 1.34 91 1012.9
20260904023002 68 192 5.0 16.0 0.00 1.34 1.34 91 1013.1
20260904022503 68 163 8.0 16.0 0.00 1.34 1.34 91 1013.0
20260904022002 68 203 6.0 14.0 0.00 1.34 1.34 91 1013.0
20260904021501 68 139 6.0 17.0 0.00 1.34 1.34 91 1012.9
20260904021002 68 180 6.0 17.0 0.00 1.34 1.34 91 1012.9
20260904020601 68 186 6.0 17.0 0.00 1.34 1.34 91 1012.8
20260904020059 68 91 6.0 13.0 0.00 1.34 1.34 91 1012.5
20260904015559 68 150 5.0 13.0 0.00 1.34 1.34 91 1012.5
20260904015102 68 135 4.0 12.0 0.00 1.34 1.34 91 1012.3
20260904014610 68 158 7.0 15.0 0.00 1.34 1.34 91 1012.4
20260904014058 68 145 7.0 15.0 0.00 1.34 1.34 91 1012.4
20260904013600 68 125 6.0 17.0 0.00 1.34 1.34 91 1012.5
20260904013056 68 168 9.0 17.0 0.00 1.34 1.34 91 1012.4
20260904012600 68 126 4.0 14.0 0.00 1.34 1.34 91 1012.6
20260904012056 68 264 4.0 14.0 0.00 1.34 1.34 91 1012.7
20260904011555 68 130 4.0 15.0 0.00 1.34 1.34 91 1012.6
20260904011056 68 133 4.0 15.0 0.00 1.34 1.34 91 1012.7
20260904010554 68 122 6.0 15.0 0.00 1.34 1.34 91 1012.8
20260904010058 68 133 5.0 15.0 0.00 1.34 1.34 91 1012.8
20260904005552 68 165 5.0 13.0 0.00 1.34 1.34 91 1012.9
20260904005051 68 151 5.0 14.0 0.01 1.34 1.34 90 1013.0
20260904004552 68 110 7.0 14.0 0.01 1.34 1.34 90 1012.9
20260904004052 68 149 5.0 13.0 0.02 1.34 1.34 90 1012.9
20260904003549 68 131 6.0 13.0 0.02 1.34 1.34 90 1012.8
20260904003050 68 154 5.0 15.0 0.02 1.34 1.34 90 1012.7
20260904002548 68 136 6.0 15.0 0.03 1.34 1.34 90 1013.0
20260904002050 68 127 4.0 11.0 0.04 1.34 1.34 90 1013.0
20260904001554 68 115 4.0 10.0 0.06 1.34 1.34 90 1012.8
20260904001048 68 125 4.0 9.0 0.07 1.34 1.34 90 1013.4
20260904000548 68 103 2.0 9.0 0.07 1.34 1.34 90 1013.3
20260904000110 68 112 3.0 9.0 0.08 1.34 1.34 90 1013.1
20260903235548 68 84 4.0 11.0 0.09 1.33 1.33 89 1013.4
20260903235046 68 71 5.0 11.0 0.11 1.33 1.33 89 1013.6
20260903234546 68 112 5.0 11.0 0.12 1.33 1.33 89 1013.9
20260903234046 68 69 6.0 10.0 0.19 1.32 1.32 89 1014.0
20260903233546 68 74 4.0 7.0 0.27 1.32 1.32 89 1014.5
20260903233102 68 54 2.0 6.0 0.38 1.32 1.32 89 1014.7
20260903232545 68 105 3.0 7.0 0.51 1.31 1.31 88 1014.9
20260903232045 69 58 2.0 8.0 0.66 1.30 1.30 88 1015.1
20260903231547 69 119 2.0 10.0 0.76 1.28 1.28 88 1015.3
20260903231044 69 356 4.0 11.0 0.82 1.27 1.27 88 1015.6
20260903230543 69 356 6.0 16.0 0.85 1.26 1.26 87 1015.5
20260903230104 69 20 7.0 16.0 0.86 1.25 1.25 87 1015.5
20260903225542 69 346 7.0 14.0 0.98 1.24 1.24 87 1015.7
20260903225041 69 342 6.0 17.0 1.02 1.22 1.22 86 1015.4
20260903224546 69 29 8.0 17.0 1.00 1.20 1.20 85 1015.2
20260903224040 70 323 7.0 16.0 0.92 1.12 1.12 85 1015.5
20260903223540 70 6 8.0 16.0 0.84 1.04 1.04 84 1015.9
20260903223105 71 25 7.0 13.0 0.71 0.91 0.91 83 1016.0
20260903222539 72 3 6.0 26.0 0.57 0.78 0.78 82 1016.6
20260903222038 73 309 4.0 35.0 0.43 0.63 0.63 80 1015.7
20260903221538 75 6 16.0 35.0 0.30 0.50 0.50 80 1014.7
20260903221041 77 351 6.0 12.0 0.25 0.45 0.45 82 1013.3
20260903220537 78 316 1.0 14.0 0.20 0.40 0.40 82 1012.4
20260903220038 78 54 2.0 14.0 0.18 0.38 0.38 81 1012.2
20260903215537 78 9 6.0 11.0 0.04 0.24 0.24 80 1012.8
20260903215036 78 333 4.0 6.0 0.00 0.20 0.20 79 1012.2
20260903214543 78 3 3.0 7.0 0.00 0.20 0.20 78 1012.3
20260903214038 79 236 2.0 11.0 0.00 0.20 0.20 78 1012.4
20260903213536 79 58 6.0 11.0 0.00 0.20 0.20 78 1012.3
20260903213046 79 20 5.0 9.0 0.00 0.20 0.20 79 1012.3
20260903212535 80 15 5.0 9.0 0.00 0.20 0.20 80 1012.2
20260903212034 80 330 4.0 7.0 0.00 0.20 0.20 80 1011.9
20260903211540 80 39 4.0 7.0 0.00 0.20 0.20 80 1011.7
20260903211035 81 356 3.0 7.0 0.00 0.20 0.20 80 1011.6
20260903210535 80 41 2.0 8.0 0.00 0.20 0.20 80 1011.5
20260903210049 80 3 4.0 8.0 0.00 0.20 0.20 80 1011.5
20260903205537 80 37 4.0 7.0 0.00 0.20 0.20 80 1011.1
20260903205034 80 8 1.0 4.0 0.00 0.20 0.20 80 1010.9
20260903204534 80 67 2.0 4.0 0.00 0.20 0.20 80 1010.7
20260903204038 79 18 0.0 7.0 0.00 0.20 0.20 80 1010.8
20260903203537 79 27 3.0 7.0 0.01 0.20 0.20 80 1011.1
20260903203036 79 23 3.0 7.0 0.02 0.20 0.20 81 1011.1
20260903202533 79 23 2.0 6.0 0.03 0.20 0.20 81 1010.9
20260903202134 79 15 2.0 6.0 0.05 0.20 0.20 82 1010.9
20260903201533 79 13 3.0 8.0 0.07 0.20 0.20 82 1010.9
20260903201033 79 30 3.0 8.0 0.07 0.20 0.20 83 1010.7
20260903200532 79 324 3.0 8.0 0.07 0.20 0.20 83 1010.9
20260903200031 79 336 3.0 8.0 0.07 0.20 0.20 83 1011.0
20260903195530 79 342 2.0 6.0 0.07 0.20 0.20 83 1011.1
20260903195029 79 84 2.0 6.0 0.07 0.20 0.20 82 1011.1
20260903194539 78 23 3.0 6.0 0.07 0.20 0.20 80 1011.3
20260903194027 78 147 1.0 15.0 0.07 0.20 0.20 76 1011.4
20260903193531 78 264 1.0 17.0 0.06 0.19 0.19 74 1011.5
20260903193027 79 327 9.0 17.0 0.05 0.18 0.18 75 1011.6
20260903192524 81 15 2.0 19.0 0.04 0.17 0.17 74 1011.9
20260903192024 83 340 12.0 27.0 0.01 0.14 0.14 71 1011.4
20260903191523 86 359 13.0 27.0 0.00 0.13 0.13 68 1011.9
20260903191027 88 356 13.0 23.0 0.00 0.13 0.13 65 1011.9
20260903190523 90 324 11.0 22.0 0.00 0.13 0.13 63 1011.9
20260903190021 91 236 1.0 7.0 0.00 0.13 0.13 62 1011.6
20260903185520 91 337 2.0 7.0 0.00 0.13 0.13 61 1011.6
20260903185025 91 290 1.0 8.0 0.00 0.13 0.13 61 1011.7
20260903184519 92 1 3.0 12.0 0.00 0.13 0.13 61 1012.0
20260903184022 92 218 3.0 13.0 0.00 0.13 0.13 61 1012.2
20260903183516 92 356 4.0 19.0 0.00 0.13 0.13 61 1012.1
20260903183015 92 220 9.0 19.0 0.00 0.13 0.13 62 1012.0
20260903182513 92 227 6.0 20.0 0.00 0.13 0.13 63 1012.0
20260903182013 91 250 9.0 20.0 0.00 0.13 0.13 65 1012.2
20260903181512 91 243 5.0 15.0 0.00 0.13 0.13 63 1012.2
20260903181015 91 215 8.0 20.0 0.00 0.13 0.13 66 1012.2
20260903180510 90 212 7.0 20.0 0.00 0.13 0.13 64 1012.2
20260903180010 90 216 7.0 18.0 0.00 0.13 0.13 65 1012.2
20260903175511 90 231 5.0 14.0 0.00 0.13 0.13 66 1012.2
20260903175007 90 222 5.0 14.0 0.00 0.13 0.13 67 1012.3
20260903174507 89 218 3.0 7.0 0.00 0.13 0.13 67 1012.4
20260903174006 89 156 1.0 10.0 0.00 0.13 0.13 66 1012.5
20260903173503 89 221 1.0 17.0 0.00 0.13 0.13 66 1012.6
20260903173003 89 216 9.0 17.0 0.00 0.13 0.13 67 1012.7
20260903172503 89 356 2.0 6.0 0.00 0.13 0.13 66 1012.8
20260903172002 89 247 2.0 12.0 0.00 0.13 0.13 66 1012.9
20260903171500 89 196 5.0 13.0 0.00 0.13 0.13 68 1013.0
20260903171100 89 292 7.0 15.0 0.00 0.13 0.13 69 1013.1
20260903170600 88 233 4.0 15.0 0.00 0.13 0.13 67 1013.1
20260903170105 88 234 5.0 15.0 0.00 0.13 0.13 67 1013.1
20260903165558 89 218 4.0 15.0 0.00 0.13 0.13 67 1013.1
20260903165059 89 202 8.0 15.0 0.00 0.13 0.13 68 1013.0
20260903164556 88 204 8.0 16.0 0.00 0.13 0.13 69 1013.2
20260903164055 88 255 9.0 16.0 0.00 0.13 0.13 70 1013.2
20260903163555 88 212 4.0 15.0 0.00 0.13 0.13 70 1013.3
20260903163053 87 221 5.0 15.0 0.00 0.13 0.13 69 1013.3
20260903162556 87 239 5.0 16.0 0.00 0.13 0.13 70 1013.4
20260903162052 87 231 8.0 16.0 0.00 0.13 0.13 71 1013.5
20260903161551 87 186 6.0 14.0 0.00 0.13 0.13 73 1013.5
20260903161049 86 147 7.0 15.0 0.00 0.13 0.13 73 1013.4
20260903160548 86 221 9.0 15.0 0.00 0.13 0.13 72 1013.2
20260903160050 86 158 6.0 13.0 0.00 0.13 0.13 73 1013.3
20260903155548 85 214 6.0 12.0 0.00 0.13 0.13 74 1013.3
20260903155046 85 211 5.0 13.0 0.00 0.13 0.13 73 1013.3